Location: Katowice
(50.2611°N, 19.0242°E)
Time: 22:18:18
(UTC+02:00)

A-11 Canister half - Pass Details

Date: 23 July 2019
Orbit: 1526 x 1683 km, 47.3° (Epoch: 23 August)

Event Time Altitude Azimuth Distance (km) Brightness Sun altitude
Rises 21:24:03 0° 235° (SW) 4,917 11.8 -6.3°
Reaches altitude 10° 21:27:17 10° 232° (SW) 3,920 11.3 -6.7°
Maximum altitude 21:37:03 59° 157° (SSE) 1,844 9.2 -7.8°
Drops below altitude 10° 21:46:33 10° 81° (E) 3,819 10.8 -8.9°
Sets 21:49:39 0° 78° (ENE) 4,785 11.3 -9.2°
